Weather History for Beaumont, TX

Change the Weather History Date:

Tuesday, February 11, 2014

  Actual Average Record
Temperature  
Mean Temperature 38 °F 55 °F  
Max Temperature 40 °F 65 °F 81 °F (1916)
Min Temperature 35 °F 46 °F 20 °F (1981)
Degree Days  
Heating Degree Days 27 10  
Month to date heating degree days 183 122  
Since 1 July heating degree days 1339 1065  
Cooling Degree Days 0 1  
Month to date cooling degree days 1 5  
Year to date cooling degree days 1 16  
Moisture  
Dew Point 34 °F    
Average Humidity 86    
Maximum Humidity 92    
Minimum Humidity 79    
Precipitation  
Precipitation 0.65 in 0.13 in 3.30 in (1959)
Month to date precipitation 1.71 1.47  
Year to date precipitation 2.98 6.73  
Snow  
Snow 0.00 in 0.00 in T in (1981)
Month to date snowfall T 0.0  
Since 1 July snowfall 0.3 T  
Snow Depth 0.00 in    
Sea Level Pressure  
Sea Level Pressure 30.13 in    
Wind  
Wind Speed 15 mph (North)    
Max Wind Speed 22 mph    
Max Gust Speed 29 mph    
Visibility 6 miles    
Events Rain    
T = Trace of Precipitation, MM = Missing Value Source: NWS Daily Summary

Daily Weather History Graph

Daily Weather History Graph

Search for Another Location

Airport:

Trip Planner

Search our weather history database for the weather conditions in past years. The results will help you decide how hot, cold, wet, or windy it might be!

Date:

Astronomy

Feb. 11, 2014 Rise Set
Actual Time 6:59 AM CST 6:01 PM CST
Civil Twilight 6:34 AM CST 6:26 PM CST
Nautical Twilight 6:06 AM CST 6:54 PM CST
Astronomical Twilight 5:38 AM CST 7:22 PM CST
Moon 3:28 PM CST (2/11) 4:30 AM CST (2/11)
Length of Visible Light 11h 51m
Length of Day
11h 02m
Waxing Gibbous, 91% of the Moon is Illuminated
Feb 11
Waxing Gibbous
Feb 14
Full
Feb 22
Last Quarter
Mar 1
New
Mar 8
First Quarter

Hourly Weather History & Observations

Time (CST) Temp. Windchill Dew Point Humidity Pressure Visibility Wind Dir Wind Speed Gust Speed Precip Events Conditions
12:09 AM 39.0 °F 30.3 °F 37.0 °F 93% 30.10 in 10.0 mi North 16.1 mph - 0.01 in Rain Light Rain
12:24 AM 39.0 °F 30.3 °F 36.0 °F 89% 30.10 in 6.0 mi North 16.1 mph - 0.01 in Rain Light Rain
12:34 AM 39.0 °F 30.3 °F 36.0 °F 89% 30.10 in 10.0 mi North 16.1 mph - 0.01 in Rain Light Rain
12:53 AM 39.0 °F 29.9 °F 36.0 °F 89% 30.11 in 10.0 mi North 17.3 mph 21.9 mph 0.02 in Rain Light Rain
1:07 AM 39.0 °F 30.3 °F 36.0 °F 89% 30.12 in 6.0 mi North 16.1 mph - 0.00 in Rain Light Rain
1:53 AM 37.9 °F 27.9 °F 35.1 °F 89% 30.11 in 6.0 mi North 19.6 mph 26.5 mph 0.00 in Rain Light Rain
2:53 AM 37.0 °F 28.9 °F 35.1 °F 93% 30.12 in 7.0 mi North 12.7 mph - 0.00 in   Overcast
3:53 AM 36.0 °F 25.3 °F 33.1 °F 89% 30.11 in 7.0 mi NNE 19.6 mph 28.8 mph 0.00 in   Overcast
4:53 AM 35.1 °F 25.2 °F 33.1 °F 92% 30.12 in 9.0 mi NNE 16.1 mph 25.3 mph N/A   Overcast
5:53 AM 35.1 °F 25.2 °F 32.0 °F 89% 30.13 in 9.0 mi NNE 16.1 mph - N/A   Overcast
6:53 AM 35.1 °F 25.2 °F 32.0 °F 89% 30.14 in 8.0 mi NNE 16.1 mph 26.5 mph N/A   Overcast
7:53 AM 35.1 °F 24.8 °F 32.0 °F 89% 30.17 in 6.0 mi North 17.3 mph - N/A   Overcast
8:53 AM 36.0 °F 27.1 °F 33.1 °F 89% 30.17 in 7.0 mi NNE 13.8 mph - N/A   Overcast
9:53 AM 37.0 °F 27.7 °F 33.1 °F 86% 30.18 in 8.0 mi NNE 16.1 mph 21.9 mph N/A   Overcast
10:53 AM 37.9 °F 28.9 °F 34.0 °F 86% 30.19 in 8.0 mi NNE 16.1 mph - N/A   Overcast
11:06 AM 37.9 °F 28.9 °F 34.0 °F 86% 30.19 in 8.0 mi NNE 16.1 mph - N/A   Overcast
11:53 AM 39.0 °F 31.4 °F 34.0 °F 82% 30.18 in 9.0 mi NNE 12.7 mph - N/A   Overcast
12:53 PM 39.0 °F 30.3 °F 34.0 °F 82% 30.14 in 9.0 mi NNE 16.1 mph - N/A   Overcast
1:16 PM 39.0 °F 30.6 °F 34.0 °F 82% 30.11 in 7.0 mi NNE 15.0 mph - N/A   Overcast
1:53 PM 39.9 °F 32.5 °F 34.0 °F 79% 30.09 in 7.0 mi NNE 12.7 mph - N/A   Overcast
2:53 PM 39.9 °F 31.4 °F 35.1 °F 83% 30.07 in 7.0 mi North 16.1 mph - 0.00 in Rain Light Rain
3:05 PM 39.0 °F 29.9 °F 35.1 °F 86% 30.05 in 2.5 mi NNE 17.3 mph - 0.00 in Rain Light Rain
3:53 PM 39.0 °F 31.4 °F 35.1 °F 86% 30.10 in 2.5 mi NNW 12.7 mph - 0.00 in Rain Light Rain
4:53 PM 39.0 °F 31.0 °F 36.0 °F 89% 30.09 in 2.5 mi North 13.8 mph - 0.05 in Rain Light Rain
5:53 PM 37.9 °F 28.5 °F 35.1 °F 89% 30.07 in 2.5 mi North 17.3 mph 26.5 mph 0.00 in Rain Light Rain
6:00 PM 37.9 °F 30.5 °F 35.1 °F 89% 30.09 in 4.0 mi North 11.5 mph 26.5 mph 0.00 in   Overcast
6:51 PM 37.4 °F 30.3 °F 33.8 °F 87% 30.11 in 2.5 mi North 10.4 mph 21.9 mph 0.12 in Rain Light Rain
6:53 PM 37.0 °F 29.3 °F 34.0 °F 89% 30.11 in 2.5 mi North 11.5 mph - 0.12 in Rain Rain
7:49 PM 37.4 °F 29.3 °F 33.8 °F 87% 30.11 in 2.5 mi North 12.7 mph - 0.05 in Rain Rain
7:53 PM 37.0 °F 29.3 °F 34.0 °F 89% 30.11 in 3.0 mi North 11.5 mph - 0.06 in Rain Rain
7:56 PM 37.0 °F 29.8 °F 34.0 °F 89% 30.11 in 3.0 mi NNE 10.4 mph - 0.01 in Rain Rain
8:53 PM 37.0 °F 29.8 °F 34.0 °F 89% 30.13 in 3.0 mi NNE 10.4 mph - 0.09 in Rain Light Rain
9:30 PM 36.0 °F 28.5 °F 34.0 °F 93% 30.14 in 2.5 mi North 10.4 mph - 0.08 in Rain Heavy Rain
9:41 PM 37.0 °F 31.6 °F 35.1 °F 93% 30.15 in 5.0 mi North 6.9 mph - 0.11 in Rain Light Rain
9:53 PM 37.0 °F 28.9 °F 34.0 °F 89% 30.15 in 2.5 mi North 12.7 mph 21.9 mph 0.16 in Rain Heavy Rain
10:01 PM 37.0 °F 29.3 °F 34.0 °F 89% 30.16 in 3.0 mi North 11.5 mph - 0.04 in Rain Heavy Rain
10:14 PM 37.0 °F 30.4 °F 34.0 °F 89% 30.16 in 4.0 mi North 9.2 mph - 0.07 in Rain Rain
10:53 PM 37.0 °F 28.9 °F 35.1 °F 93% 30.15 in 5.0 mi North 12.7 mph - 0.13 in Rain Light Rain
11:12 PM 37.0 °F 28.5 °F 34.0 °F 89% 30.14 in 6.0 mi North 13.8 mph - 0.01 in Rain Light Rain
11:24 PM 37.0 °F 29.8 °F 34.0 °F 89% 30.13 in 6.0 mi North 10.4 mph - 0.01 in Rain Light Rain
11:53 PM 37.0 °F 29.3 °F 34.0 °F 89% 30.12 in 10.0 mi NNW 11.5 mph - 0.02 in   Overcast